DEMOIN EDXW-LIPZ

Flight info

Callsign DEMOIN
Flight time 1h 57m
Altitude 45000
Route OLDIP1B OLDIP DCT GIKOG DCT DENIX M852 POVEL Z94 GALMA M736 TABAT DCT BAVAX Z106 MANAL M736 OLPIX DCT AKADO DCT INDOD
Aircraft C700/M-SBDGHM1RWXY/LB2

Departure

Time 2026-05-06 21:44
Airport Westerland Sylt Airport (EDXW)

Arrival

Time 2026-05-06 23:41
Airport Venice Marco Polo Airport (LIPZ)
Time Latitude Longitude Altitude Speed Heading
2026-05-06 21:17 54.91407 8.32445 23 ft 0 kts 263°
2026-05-06 21:35 54.91394 8.32431 21 ft 9 kts 196°
2026-05-06 21:35 54.91317 8.32456 22 ft 13 kts 163°
2026-05-06 21:35 54.91228 8.32530 22 ft 16 kts 139°
2026-05-06 21:36 54.91190 8.32593 22 ft 6 kts 136°
2026-05-06 21:36 54.91149 8.32649 22 ft 9 kts 148°
2026-05-06 21:36 54.91090 8.32729 22 ft 12 kts 116°
2026-05-06 21:36 54.91061 8.32878 26 ft 13 kts 115°
2026-05-06 21:37 54.91007 8.33010 27 ft 14 kts 133°
2026-05-06 21:37 54.90969 8.33077 28 ft 8 kts 136°
2026-05-06 21:37 54.90919 8.33138 29 ft 9 kts 150°
2026-05-06 21:37 54.90850 8.33192 30 ft 13 kts 160°
2026-05-06 21:38 54.90753 8.33225 30 ft 16 kts 175°
2026-05-06 21:38 54.90633 8.33240 29 ft 19 kts 175°
2026-05-06 21:38 54.90488 8.33277 28 ft 23 kts 160°
2026-05-06 21:38 54.90404 8.33354 28 ft 15 kts 146°
2026-05-06 21:39 54.90323 8.33493 27 ft 18 kts 126°
2026-05-06 21:39 54.90265 8.33698 27 ft 20 kts 105°
2026-05-06 21:39 54.90245 8.33950 27 ft 22 kts 95°
2026-05-06 21:39 54.90244 8.34225 28 ft 23 kts 79°
2026-05-06 21:40 54.90248 8.34256 28 ft 0 kts 79°
2026-05-06 21:42 54.90253 8.34283 28 ft 8 kts 68°
2026-05-06 21:42 54.90284 8.34391 29 ft 14 kts 58°
2026-05-06 21:42 54.90358 8.34555 30 ft 22 kts 47°
2026-05-06 21:42 54.90487 8.34761 30 ft 29 kts 42°
2026-05-06 21:43 54.90598 8.34929 30 ft 16 kts 18°
2026-05-06 21:43 54.90641 8.34899 30 ft 2 kts 325°
2026-05-06 21:43 54.90924 8.34544 31 ft 100 kts 326°
2026-05-06 21:43 54.91662 8.33535 253 ft 161 kts 324°
2026-05-06 21:44 54.92573 8.32283 1044 ft 193 kts 326°
2026-05-06 21:44 54.93804 8.30813 2078 ft 204 kts 329°
2026-05-06 21:44 54.94975 8.29503 3719 ft 211 kts 328°
2026-05-06 21:44 54.96273 8.27742 4009 ft 251 kts 314°
2026-05-06 21:45 54.97158 8.25186 4012 ft 245 kts 293°
2026-05-06 21:45 54.97462 8.22341 4003 ft 236 kts 271°
2026-05-06 21:45 54.97190 8.19599 3987 ft 225 kts 250°
2026-05-06 21:45 54.96467 8.17314 3992 ft 217 kts 232°
2026-05-06 21:46 54.95411 8.15407 3997 ft 216 kts 214°
2026-05-06 21:46 54.94050 8.14277 3997 ft 219 kts 192°
2026-05-06 21:46 54.92518 8.14051 4201 ft 238 kts 172°
2026-05-06 21:46 54.90863 8.14951 5239 ft 258 kts 149°
2026-05-06 21:47 54.89412 8.16811 6826 ft 265 kts 140°
2026-05-06 21:47 54.87963 8.18861 8388 ft 272 kts 140°
2026-05-06 21:47 54.86483 8.20989 10028 ft 280 kts 141°
2026-05-06 21:47 54.84951 8.23172 11613 ft 288 kts 141°
2026-05-06 21:48 54.83376 8.25399 13247 ft 297 kts 142°
2026-05-06 21:48 54.81680 8.27559 14646 ft 306 kts 150°
2026-05-06 21:48 54.79854 8.29513 16163 ft 312 kts 150°
2026-05-06 21:48 54.78025 8.31513 17554 ft 319 kts 150°
2026-05-06 21:49 54.76124 8.33606 18761 ft 327 kts 150°
2026-05-06 21:49 54.74185 8.35724 19859 ft 332 kts 151°
2026-05-06 21:49 54.72216 8.37863 20876 ft 337 kts 151°
2026-05-06 21:49 54.70274 8.40205 21879 ft 345 kts 143°
2026-05-06 21:50 54.68605 8.43250 22890 ft 355 kts 131°
2026-05-06 21:50 54.67300 8.46932 23819 ft 365 kts 118°
2026-05-06 21:50 54.66323 8.51021 24641 ft 371 kts 115°
2026-05-06 21:50 54.65366 8.55119 25449 ft 375 kts 115°
2026-05-06 21:51 54.64372 8.59320 26260 ft 380 kts 115°
2026-05-06 21:51 54.63365 8.63568 27057 ft 385 kts 115°
2026-05-06 21:51 54.62514 8.67970 27899 ft 391 kts 106°
2026-05-06 21:51 54.62142 8.72669 28532 ft 404 kts 95°
2026-05-06 21:52 54.62316 8.77668 28553 ft 430 kts 84°
2026-05-06 21:52 54.62399 8.82840 29246 ft 431 kts 96°
2026-05-06 21:52 54.61943 8.87948 29965 ft 432 kts 107°
2026-05-06 21:52 54.60954 8.92836 30565 ft 432 kts 117°
2026-05-06 21:53 54.59497 8.97271 31135 ft 431 kts 128°
2026-05-06 21:53 54.57578 9.01236 31684 ft 431 kts 139°
2026-05-06 21:53 54.55277 9.04542 32214 ft 431 kts 149°
2026-05-06 21:53 54.52721 9.07245 32723 ft 433 kts 153°
2026-05-06 21:54 54.50117 9.09904 33251 ft 437 kts 153°
2026-05-06 21:54 54.47509 9.12582 33954 ft 436 kts 152°
2026-05-06 21:54 54.44907 9.15259 34492 ft 436 kts 152°
2026-05-06 21:54 54.42307 9.17927 35056 ft 436 kts 152°
2026-05-06 21:55 54.39736 9.20552 35594 ft 436 kts 152°
2026-05-06 21:55 54.37130 9.23209 36156 ft 436 kts 153°
2026-05-06 21:55 54.34524 9.25868 36706 ft 436 kts 153°
2026-05-06 21:55 54.31921 9.28521 37237 ft 436 kts 153°
2026-05-06 21:56 54.29316 9.31169 37768 ft 436 kts 153°
2026-05-06 21:56 54.26710 9.33814 38283 ft 436 kts 153°
2026-05-06 21:56 54.24104 9.36456 38747 ft 436 kts 153°
2026-05-06 21:56 54.21495 9.39097 39123 ft 436 kts 153°
2026-05-06 21:57 54.18920 9.41700 39482 ft 436 kts 153°
2026-05-06 21:57 54.16306 9.44338 39832 ft 436 kts 153°
2026-05-06 21:57 54.13693 9.46972 40178 ft 437 kts 153°
2026-05-06 21:57 54.11076 9.49605 40511 ft 437 kts 153°
2026-05-06 21:58 54.08462 9.52232 40857 ft 437 kts 153°
2026-05-06 21:58 54.05846 9.54857 41175 ft 436 kts 153°
2026-05-06 21:58 54.03229 9.57479 41501 ft 436 kts 153°
2026-05-06 21:58 54.00611 9.60097 41806 ft 437 kts 153°
2026-05-06 21:59 53.98024 9.62681 42105 ft 437 kts 153°
2026-05-06 21:59 53.95404 9.65295 42394 ft 437 kts 153°
2026-05-06 21:59 53.92775 9.67913 42686 ft 438 kts 153°
2026-05-06 21:59 53.90148 9.70526 42973 ft 438 kts 153°
2026-05-06 22:00 53.87519 9.73137 43251 ft 438 kts 153°
2026-05-06 22:00 53.84890 9.75744 43513 ft 438 kts 153°
2026-05-06 22:00 53.82257 9.78350 43777 ft 439 kts 153°
2026-05-06 22:00 53.79621 9.80957 44041 ft 439 kts 153°
2026-05-06 22:01 53.76984 9.83561 44301 ft 439 kts 153°
2026-05-06 22:01 53.74380 9.86127 44546 ft 439 kts 152°
2026-05-06 22:01 53.71738 9.88727 44775 ft 439 kts 153°
2026-05-06 22:01 53.69095 9.91326 44941 ft 441 kts 153°
2026-05-06 22:02 53.63727 9.96587 44940 ft 451 kts 152°
2026-05-06 22:02 53.58239 10.01955 44947 ft 461 kts 152°
2026-05-06 22:03 53.52637 10.07415 44944 ft 470 kts 152°
2026-05-06 22:03 53.46967 10.12925 44942 ft 478 kts 152°
2026-05-06 22:04 53.41166 10.18545 44914 ft 486 kts 152°
2026-05-06 22:04 53.35253 10.24254 44916 ft 493 kts 152°
2026-05-06 22:05 53.29425 10.29872 44882 ft 467 kts 152°
2026-05-06 22:05 53.26698 10.32491 44883 ft 451 kts 153°
2026-05-06 22:05 53.24024 10.35051 44879 ft 436 kts 153°
2026-05-06 22:06 53.21436 10.37528 44879 ft 422 kts 153°
2026-05-06 22:06 53.18908 10.39944 44888 ft 418 kts 153°
2026-05-06 22:06 53.13779 10.44757 44901 ft 427 kts 157°
2026-05-06 22:07 53.08103 10.47814 44906 ft 434 kts 168°
2026-05-06 22:07 53.02242 10.50411 44902 ft 444 kts 167°
2026-05-06 22:08 52.96210 10.53081 44900 ft 453 kts 167°
2026-05-06 22:08 52.90054 10.55792 44903 ft 462 kts 167°
2026-05-06 22:09 52.83780 10.58552 44899 ft 469 kts 167°
2026-05-06 22:09 52.77492 10.61366 44884 ft 467 kts 167°
2026-05-06 22:10 52.71294 10.64123 44876 ft 462 kts 167°
2026-05-06 22:10 52.65100 10.66867 44867 ft 461 kts 167°
2026-05-06 22:11 52.58887 10.69617 44863 ft 463 kts 167°
2026-05-06 22:11 52.52642 10.72370 44861 ft 465 kts 167°
2026-05-06 22:12 52.46424 10.75105 44859 ft 467 kts 167°
2026-05-06 22:12 52.40152 10.77854 44858 ft 466 kts 167°
2026-05-06 22:13 52.33830 10.79881 44856 ft 460 kts 178°
2026-05-06 22:13 52.27462 10.80749 44859 ft 459 kts 177°
2026-05-06 22:14 52.21157 10.81634 44847 ft 457 kts 177°
2026-05-06 22:14 52.14835 10.82721 44852 ft 459 kts 171°
2026-05-06 22:15 52.08796 10.86275 44843 ft 467 kts 155°
2026-05-06 22:15 52.03064 10.91260 44864 ft 469 kts 155°
2026-05-06 22:16 51.97279 10.96243 44852 ft 471 kts 154°
2026-05-06 22:16 51.91536 11.01198 44845 ft 470 kts 154°
2026-05-06 22:17 51.85769 11.06144 44840 ft 468 kts 154°
2026-05-06 22:17 51.80025 11.11065 44838 ft 466 kts 155°
2026-05-06 22:18 51.74297 11.15953 44841 ft 464 kts 155°
2026-05-06 22:18 51.68581 11.20819 44844 ft 465 kts 155°
2026-05-06 22:19 51.62897 11.25642 44834 ft 465 kts 155°
2026-05-06 22:19 51.57163 11.30497 44839 ft 466 kts 155°
2026-05-06 22:20 51.51422 11.35345 44837 ft 466 kts 155°
2026-05-06 22:20 51.45669 11.40188 44833 ft 467 kts 155°
2026-05-06 22:21 51.39801 11.44283 44827 ft 461 kts 167°
2026-05-06 22:21 51.33540 11.45725 44837 ft 455 kts 179°
2026-05-06 22:22 51.27192 11.46341 44838 ft 455 kts 178°
2026-05-06 22:22 51.20882 11.46949 44829 ft 455 kts 179°
2026-05-06 22:23 51.14551 11.47554 44821 ft 457 kts 179°
2026-05-06 22:23 51.08240 11.48161 44824 ft 459 kts 179°
2026-05-06 22:24 51.01857 11.48769 44830 ft 460 kts 179°
2026-05-06 22:24 50.95473 11.49381 44825 ft 458 kts 179°
2026-05-06 22:25 50.89126 11.49984 44820 ft 456 kts 179°
2026-05-06 22:25 50.82815 11.50584 44820 ft 453 kts 179°
2026-05-06 22:26 50.76560 11.51175 44813 ft 454 kts 179°
2026-05-06 22:26 50.70245 11.51772 44821 ft 455 kts 179°
2026-05-06 22:27 50.63912 11.52368 44828 ft 456 kts 179°
2026-05-06 22:27 50.57567 11.52964 44829 ft 457 kts 179°
2026-05-06 22:28 50.51265 11.53406 44837 ft 457 kts 179°
2026-05-06 22:28 50.44908 11.53855 44833 ft 458 kts 180°
2026-05-06 22:29 50.38499 11.54257 44833 ft 464 kts 180°
2026-05-06 22:29 50.32023 11.54690 44838 ft 466 kts 179°
2026-05-06 22:30 50.25607 11.55104 44821 ft 463 kts 179°
2026-05-06 22:30 50.19192 11.55523 44829 ft 460 kts 179°
2026-05-06 22:31 50.12804 11.55935 44833 ft 460 kts 179°
2026-05-06 22:31 50.06398 11.56349 44824 ft 462 kts 179°
2026-05-06 22:32 50.00001 11.56762 44834 ft 464 kts 179°
2026-05-06 22:32 49.93535 11.57177 44836 ft 465 kts 179°
2026-05-06 22:33 49.87088 11.57591 44842 ft 463 kts 179°
2026-05-06 22:33 49.80708 11.57999 44834 ft 461 kts 179°
2026-05-06 22:34 49.74327 11.58406 44837 ft 458 kts 179°
2026-05-06 22:34 49.67966 11.58810 44834 ft 457 kts 179°
2026-05-06 22:35 49.61604 11.59213 44843 ft 458 kts 179°
2026-05-06 22:35 49.55218 11.59618 44843 ft 460 kts 179°
2026-05-06 22:36 49.48807 11.60022 44856 ft 462 kts 179°
2026-05-06 22:36 49.42412 11.60425 44870 ft 463 kts 179°
2026-05-06 22:37 49.35984 11.60828 44869 ft 462 kts 179°
2026-05-06 22:37 49.29565 11.61230 44867 ft 462 kts 179°
2026-05-06 22:38 49.23147 11.61630 44873 ft 461 kts 179°
2026-05-06 22:38 49.16737 11.62030 44869 ft 461 kts 179°
2026-05-06 22:39 49.10355 11.62426 44869 ft 465 kts 179°
2026-05-06 22:39 49.03857 11.62828 44880 ft 470 kts 179°
2026-05-06 22:40 48.97325 11.63233 44902 ft 469 kts 179°
2026-05-06 22:40 48.90832 11.63633 44897 ft 466 kts 179°
2026-05-06 22:41 48.81161 11.64227 44904 ft 466 kts 179°
2026-05-06 22:42 48.74671 11.64624 44903 ft 467 kts 179°
2026-05-06 22:42 48.68166 11.65022 44903 ft 468 kts 179°
2026-05-06 22:43 48.61664 11.65417 44905 ft 468 kts 179°
2026-05-06 22:43 48.55191 11.65810 44907 ft 468 kts 179°
2026-05-06 22:44 48.48688 11.66209 44905 ft 467 kts 180°
2026-05-06 22:44 48.42214 11.66598 44905 ft 464 kts 180°
2026-05-06 22:45 48.35796 11.66983 44903 ft 460 kts 180°
2026-05-06 22:45 48.29406 11.67367 44907 ft 460 kts 180°
2026-05-06 22:46 48.23082 11.68650 44911 ft 466 kts 169°
2026-05-06 22:46 48.16745 11.70841 44924 ft 468 kts 169°
2026-05-06 22:47 48.10388 11.73013 44927 ft 469 kts 169°
2026-05-06 22:47 48.04034 11.75194 44920 ft 467 kts 169°
2026-05-06 22:48 47.97739 11.77338 44922 ft 463 kts 169°
2026-05-06 22:48 47.91509 11.79409 44925 ft 459 kts 173°
2026-05-06 22:49 47.85164 11.79724 44950 ft 457 kts 184°
2026-05-06 22:49 47.78830 11.79365 44938 ft 449 kts 184°
2026-05-06 22:49 47.75773 11.79204 44934 ft 431 kts 184°
2026-05-06 22:50 47.72817 11.79032 44932 ft 421 kts 184°
2026-05-06 22:50 47.66950 11.78690 44938 ft 430 kts 184°
2026-05-06 22:51 47.60907 11.78356 44938 ft 440 kts 184°
2026-05-06 22:51 47.54727 11.78007 44936 ft 449 kts 184°
2026-05-06 22:52 47.48422 11.77656 44935 ft 458 kts 184°
2026-05-06 22:52 47.42008 11.77296 44939 ft 465 kts 184°
2026-05-06 22:53 47.35608 11.76942 44926 ft 460 kts 184°
2026-05-06 22:53 47.29268 11.76589 44915 ft 454 kts 184°
2026-05-06 22:54 47.22943 11.76237 44915 ft 454 kts 185°
2026-05-06 22:54 47.16606 11.75887 44924 ft 457 kts 184°
2026-05-06 22:55 47.10350 11.74625 44920 ft 453 kts 199°
2026-05-06 22:55 47.04441 11.71583 44925 ft 451 kts 193°
2026-05-06 22:56 46.98221 11.71261 44943 ft 455 kts 175°
2026-05-06 22:56 46.92078 11.73805 44939 ft 462 kts 165°
2026-05-06 22:57 46.85992 11.76821 44950 ft 463 kts 165°
2026-05-06 22:57 46.79879 11.79831 44955 ft 464 kts 165°
2026-05-06 22:58 46.73793 11.82828 44948 ft 465 kts 165°
2026-05-06 22:58 46.67659 11.85833 44950 ft 464 kts 165°
2026-05-06 22:59 46.61544 11.88829 44954 ft 463 kts 165°
2026-05-06 22:59 46.55449 11.91808 44958 ft 461 kts 165°
2026-05-06 23:00 46.49373 11.94764 44963 ft 461 kts 165°
2026-05-06 23:00 46.43336 11.97701 44964 ft 461 kts 165°
2026-05-06 23:01 46.37246 12.00652 44961 ft 462 kts 165°
2026-05-06 23:01 46.31152 12.03602 44961 ft 462 kts 165°
2026-05-06 23:02 46.25037 12.06551 44958 ft 464 kts 165°
2026-05-06 23:02 46.18960 12.09480 44961 ft 464 kts 165°
2026-05-06 23:03 46.12842 12.12417 44958 ft 463 kts 165°
2026-05-06 23:03 46.06743 12.15342 44945 ft 461 kts 165°
2026-05-06 23:04 46.00660 12.18250 44953 ft 460 kts 165°
2026-05-06 23:04 45.94640 12.21122 44939 ft 459 kts 165°
2026-05-06 23:05 45.88550 12.24019 44380 ft 469 kts 165°
2026-05-06 23:05 45.85545 12.25453 43902 ft 422 kts 165°
2026-05-06 23:05 45.82922 12.26732 40467 ft 391 kts 167°
2026-05-06 23:05 45.80343 12.27935 36412 ft 384 kts 169°
2026-05-06 23:06 45.77889 12.29087 32514 ft 356 kts 170°
2026-05-06 23:06 45.75637 12.30167 28768 ft 328 kts 170°
2026-05-06 23:06 45.73557 12.31146 26138 ft 305 kts 170°
2026-05-06 23:06 45.71668 12.32044 25174 ft 271 kts 170°
2026-05-06 23:07 45.69932 12.32858 24358 ft 256 kts 171°
2026-05-06 23:07 45.68276 12.33629 23588 ft 247 kts 171°
2026-05-06 23:07 45.66657 12.33929 22671 ft 225 kts 197°
2026-05-06 23:07 45.65254 12.33087 21826 ft 217 kts 210°
2026-05-06 23:08 45.63923 12.32077 20994 ft 217 kts 210°
2026-05-06 23:08 45.62555 12.31122 20036 ft 222 kts 207°
2026-05-06 23:08 45.61142 12.30252 19093 ft 226 kts 206°
2026-05-06 23:08 45.59684 12.29360 18156 ft 230 kts 206°
2026-05-06 23:09 45.58210 12.28441 17107 ft 233 kts 206°
2026-05-06 23:09 45.56721 12.27510 16096 ft 234 kts 206°
2026-05-06 23:09 45.55226 12.26578 15227 ft 232 kts 205°
2026-05-06 23:09 45.53778 12.25679 14614 ft 222 kts 205°
2026-05-06 23:10 45.52393 12.24817 14000 ft 214 kts 205°
2026-05-06 23:10 45.51044 12.23976 13354 ft 210 kts 205°
2026-05-06 23:10 45.49707 12.23144 12693 ft 210 kts 205°
2026-05-06 23:10 45.48369 12.22313 12051 ft 211 kts 205°
2026-05-06 23:11 45.47034 12.21483 11425 ft 212 kts 205°
2026-05-06 23:11 45.45678 12.20640 10812 ft 213 kts 205°
2026-05-06 23:11 45.44319 12.19799 10256 ft 212 kts 205°
2026-05-06 23:11 45.42970 12.18962 9767 ft 212 kts 205°
2026-05-06 23:12 45.41615 12.18122 9235 ft 213 kts 205°
2026-05-06 23:12 45.40254 12.17278 8663 ft 215 kts 205°
2026-05-06 23:12 45.38880 12.16507 8013 ft 212 kts 194°
2026-05-06 23:12 45.37424 12.16853 7375 ft 222 kts 152°
2026-05-06 23:13 45.36444 12.18545 6750 ft 229 kts 113°
2026-05-06 23:13 45.36359 12.20759 5754 ft 231 kts 75°
2026-05-06 23:13 45.37233 12.22590 4708 ft 224 kts 35°
2026-05-06 23:13 45.38659 12.23296 3668 ft 215 kts
2026-05-06 23:14 45.40123 12.23605 2649 ft 212 kts
2026-05-06 23:14 45.41492 12.24190 1939 ft 197 kts 21°
2026-05-06 23:14 45.42647 12.25092 1934 ft 189 kts 35°
2026-05-06 23:14 45.43611 12.26277 1929 ft 177 kts 42°
2026-05-06 23:15 45.44500 12.27454 1936 ft 172 kts 41°
2026-05-06 23:15 45.45383 12.28594 1930 ft 171 kts 40°
2026-05-06 23:15 45.46254 12.29710 1934 ft 171 kts 40°
2026-05-06 23:15 45.47150 12.30859 1950 ft 179 kts 40°
2026-05-06 23:16 45.48104 12.32083 1951 ft 189 kts 41°
2026-05-06 23:16 45.49091 12.33350 1944 ft 193 kts 41°
2026-05-06 23:16 45.50092 12.34636 1946 ft 194 kts 41°
2026-05-06 23:16 45.51094 12.35924 1945 ft 195 kts 41°
2026-05-06 23:17 45.52102 12.37220 1945 ft 195 kts 41°
2026-05-06 23:17 45.53113 12.38520 1946 ft 196 kts 41°
2026-05-06 23:17 45.54114 12.39807 1948 ft 196 kts 41°
2026-05-06 23:17 45.55132 12.41113 1944 ft 197 kts 41°
2026-05-06 23:18 45.56150 12.42414 1941 ft 196 kts 41°
2026-05-06 23:18 45.57173 12.43702 1947 ft 196 kts 40°
2026-05-06 23:18 45.58200 12.44978 1943 ft 196 kts 39°
2026-05-06 23:18 45.59239 12.46249 1972 ft 196 kts 39°
2026-05-06 23:19 45.60282 12.47508 2049 ft 194 kts 39°
2026-05-06 23:19 45.61204 12.48635 2668 ft 165 kts 42°
2026-05-06 23:19 45.62010 12.49872 2924 ft 176 kts 45°
2026-05-06 23:19 45.62915 12.51158 2945 ft 190 kts 42°
2026-05-06 23:20 45.63888 12.52453 2944 ft 197 kts 41°
2026-05-06 23:20 45.64915 12.53783 2939 ft 201 kts 40°
2026-05-06 23:20 45.65958 12.55122 2938 ft 202 kts 41°
2026-05-06 23:20 45.66997 12.56484 2940 ft 203 kts 40°
2026-05-06 23:21 45.68047 12.57821 2935 ft 202 kts 41°
2026-05-06 23:21 45.69075 12.59180 2933 ft 201 kts 42°
2026-05-06 23:21 45.70100 12.60527 2932 ft 200 kts 41°
2026-05-06 23:21 45.71142 12.61792 2916 ft 197 kts 29°
2026-05-06 23:22 45.72454 12.62030 2915 ft 195 kts 341°
2026-05-06 23:22 45.73451 12.60807 2929 ft 193 kts 297°
2026-05-06 23:22 45.73773 12.58971 2930 ft 192 kts 266°
2026-05-06 23:22 45.73313 12.57196 2930 ft 193 kts 232°
2026-05-06 23:23 45.72276 12.55984 2935 ft 194 kts 214°
2026-05-06 23:23 45.71162 12.54893 2931 ft 194 kts 217°
2026-05-06 23:23 45.70090 12.53716 2939 ft 194 kts 219°
2026-05-06 23:23 45.69035 12.52509 2938 ft 194 kts 219°
2026-05-06 23:24 45.67989 12.51324 2936 ft 195 kts 219°
2026-05-06 23:24 45.66932 12.50126 2939 ft 193 kts 219°
2026-05-06 23:24 45.65878 12.48931 2939 ft 193 kts 219°
2026-05-06 23:24 45.64828 12.47742 2940 ft 192 kts 219°
2026-05-06 23:25 45.63780 12.46555 2941 ft 192 kts 219°
2026-05-06 23:25 45.62734 12.45372 2943 ft 192 kts 219°
2026-05-06 23:25 45.61688 12.44189 2944 ft 192 kts 219°
2026-05-06 23:25 45.60636 12.42999 2944 ft 192 kts 219°
2026-05-06 23:26 45.59588 12.41814 2945 ft 192 kts 219°
2026-05-06 23:26 45.58557 12.40650 2945 ft 192 kts 219°
2026-05-06 23:26 45.57502 12.39459 2946 ft 193 kts 219°
2026-05-06 23:26 45.56452 12.38273 2946 ft 193 kts 219°
2026-05-06 23:27 45.55410 12.37099 2946 ft 192 kts 219°
2026-05-06 23:27 45.54358 12.35913 2945 ft 192 kts 219°
2026-05-06 23:27 45.53312 12.34734 2944 ft 192 kts 219°
2026-05-06 23:27 45.52266 12.33556 2942 ft 192 kts 219°
2026-05-06 23:28 45.51245 12.32407 2944 ft 192 kts 219°
2026-05-06 23:28 45.50185 12.31213 2943 ft 191 kts 220°
2026-05-06 23:28 45.49146 12.30042 2945 ft 190 kts 220°
2026-05-06 23:28 45.48107 12.28875 2946 ft 190 kts 220°
2026-05-06 23:29 45.47068 12.27708 2946 ft 190 kts 220°
2026-05-06 23:29 45.46029 12.26542 2946 ft 190 kts 220°
2026-05-06 23:29 45.44992 12.25378 2944 ft 189 kts 220°
2026-05-06 23:29 45.43958 12.24219 2943 ft 189 kts 220°
2026-05-06 23:30 45.42927 12.23062 2942 ft 189 kts 220°
2026-05-06 23:30 45.41912 12.21924 2942 ft 188 kts 220°
2026-05-06 23:30 45.40867 12.20754 2942 ft 188 kts 220°
2026-05-06 23:30 45.39851 12.19616 2941 ft 189 kts 220°
2026-05-06 23:31 45.38820 12.18463 2940 ft 188 kts 220°
2026-05-06 23:31 45.37788 12.17310 2939 ft 188 kts 219°
2026-05-06 23:31 45.36758 12.16160 2940 ft 188 kts 220°
2026-05-06 23:31 45.35729 12.15010 2943 ft 188 kts 220°
2026-05-06 23:32 45.34725 12.13888 2941 ft 188 kts 220°
2026-05-06 23:32 45.33670 12.12711 2941 ft 188 kts 220°
2026-05-06 23:32 45.32640 12.11561 2941 ft 188 kts 220°
2026-05-06 23:32 45.31626 12.10431 2935 ft 188 kts 220°
2026-05-06 23:33 45.30597 12.09283 2937 ft 188 kts 219°
2026-05-06 23:33 45.29570 12.08139 2937 ft 188 kts 220°
2026-05-06 23:33 45.28544 12.06997 2937 ft 187 kts 219°
2026-05-06 23:33 45.27402 12.06314 2918 ft 191 kts 182°
2026-05-06 23:34 45.26134 12.07043 2939 ft 198 kts 141°
2026-05-06 23:34 45.25468 12.08739 2942 ft 205 kts 99°
2026-05-06 23:34 45.25737 12.10684 2941 ft 206 kts 56°
2026-05-06 23:34 45.26838 12.11898 2944 ft 202 kts 13°
2026-05-06 23:35 45.28214 12.12157 2945 ft 199 kts
2026-05-06 23:35 45.29583 12.12305 2946 ft 201 kts
2026-05-06 23:35 45.30958 12.12494 2945 ft 201 kts
2026-05-06 23:35 45.32319 12.12731 2939 ft 201 kts
2026-05-06 23:36 45.33633 12.13609 2932 ft 205 kts 34°
2026-05-06 23:36 45.34648 12.14828 2935 ft 206 kts 39°
2026-05-06 23:36 45.35715 12.16190 2919 ft 207 kts 41°
2026-05-06 23:36 45.36776 12.17560 2933 ft 206 kts 39°
2026-05-06 23:37 45.37829 12.18898 2980 ft 196 kts 40°
2026-05-06 23:37 45.38793 12.20145 2797 ft 180 kts 39°
2026-05-06 23:37 45.39704 12.21298 2576 ft 176 kts 40°
2026-05-06 23:37 45.40557 12.22410 2418 ft 154 kts 39°
2026-05-06 23:38 45.41322 12.23373 2160 ft 147 kts 39°
2026-05-06 23:38 45.42082 12.24365 1959 ft 143 kts 39°
2026-05-06 23:38 45.42817 12.25298 1763 ft 141 kts 40°
2026-05-06 23:38 45.43542 12.26225 1585 ft 139 kts 40°
2026-05-06 23:39 45.44254 12.27148 1395 ft 138 kts 39°
2026-05-06 23:39 45.44966 12.28055 1211 ft 137 kts 40°
2026-05-06 23:39 45.45687 12.28930 998 ft 137 kts 38°
2026-05-06 23:39 45.46407 12.29811 698 ft 137 kts 40°
2026-05-06 23:40 45.47069 12.30691 632 ft 129 kts 41°
2026-05-06 23:40 45.47713 12.31600 466 ft 131 kts 44°
2026-05-06 23:40 45.48392 12.32500 167 ft 139 kts 40°
2026-05-06 23:40 45.49111 12.33401 141 ft 139 kts 40°
2026-05-06 23:41 45.49750 12.34205 16 ft 107 kts 41°
2026-05-06 23:41 45.50192 12.34754 9 ft 63 kts 31°
2026-05-06 23:41 45.50464 12.35049 8 ft 31 kts 21°
2026-05-06 23:41 45.50519 12.35068 9 ft 0 kts
2026-05-06 23:42 45.50520 12.35068 9 ft 1 kts
2026-05-06 23:42 45.50548 12.35073 9 ft 8 kts
2026-05-06 23:43 45.50606 12.35010 9 ft 16 kts 289°
2026-05-06 23:43 45.50605 12.34817 10 ft 23 kts 266°
2026-05-06 23:43 45.50602 12.34713 10 ft 11 kts 271°
2026-05-06 23:43 45.50602 12.34578 10 ft 8 kts 270°
2026-05-06 23:44 45.50601 12.34499 10 ft 11 kts 270°
2026-05-06 23:44 45.50611 12.34394 10 ft 11 kts 297°
2026-05-06 23:44 45.50632 12.34368 10 ft 6 kts 347°
2026-05-06 23:44 45.50659 12.34387 10 ft 0 kts 56°
2026-05-06 23:45 45.50661 12.34400 10 ft 5 kts 81°
2026-05-06 23:45 45.50664 12.34425 10 ft 4 kts 77°
2026-05-06 23:45 45.50664 12.34429 10 ft 0 kts 78°